FALCON 9 R/B, 62007

Orbit data source: Space-Track

FALCON 9 R/B, 62007 is space debris in HEO originally from a launch on Sun, 17 Nov 2024 UTC launched from the Air Force Eastern Test Range (AFETR). Debris objects in space refer to the collection of defunct objects orbiting the Earth. Examples of debris include non-operational satellites, rocket bodies, and fragments generated from explosions, collisions, or faulty payload assembly.

Loading next visibility...
Identifier
62007, 2024-212B
Orbit
HEO
Country
Flag of USUS
Related business
Manufacturer
SpaceX
Mission
Spacecraft
Bus & Motor
F9ST2, Unknown motor
Mass
~4,000 kg wet, ~4,000 kg dry
Launch date (UTC)
2024-11-17 (2 years ago)
Launch vehicle
Unknown
Launch site
Air Force Eastern Test Range (AFETR)
Object type
Payload
Rocket body
Debris
Shape & HBR
Cyl, 7.8 m
Radar Cross Section
39.980 m², Large (>1 m²)

Expand to show TLE details & history
Last TLE update: 1 day ago

TLE from 1 day ago
0 FALCON 9 R/B
1 62007U 24212B   26170.98678797  .00000346  00000-0  28245-2 0  9999
2 62007  18.3812  68.6061 7805071  95.3870 347.5844  1.58910238  9165
Epoch: 2026-06-19T23:40Z
TLE epoch observation values (Epoch: 2026-06-19T23:40:58.480Z)
Latitude
0.00004°
Longitude
165.08453°
Altitude
6,742.976 km
Speed
6.921 km/s
True Right ascension
04h 34m 08s
True Declination
0° 00' 00"
Sunlit
Object was in daylight at epoch
Visualization orbit readout
Latitude
Unknown
Longitude
Unknown
Altitude
Unknown
Speed
Unknown
Apparent Right ascension
Unknown
Apparent Declination
Unknown
Sunlit
N/A
Visualization observer readout
Local Sidereal Time
10:18:06
Azimuth
Unknown
Elevation
Unknown
Doppler factor
Unknown
Orbital elements
Apogee altitude
48,861.031 km
Perigee altitude
431.499 km
Semi-major axis
31,024.402 km
Eccentricity
0.78051
Inclination
18.3812°
RAAN
68.6061°
Arg. of periapsis
95.387°
True anomaly
263.71523°
Mean anomaly
347.5844°
Eccentric anomaly
317.19987°
Mean motion
0.39718 °/min
Orbital period
906.39 mins
BSTAR
0.0028245
Loading maneuver chart data...
Computing Atmospheric mass density...
Loading historical data...
Loading historical data...
Loading historical data...
Loading historical data...
Loading historical data...
Loading historical data...
Loading historical data...
Other satellites on launch #212 in the year 2024 (2024-11-17 UTC)

Documentation

Showing up to 5 results
|